Location: Gadern
(49.5873°N, 8.8138°E)
Time: 01:57:21
(UTC+00:00)

Cosmos 1538 Rocket - Pass Details

Date: 19 May 2025
Orbit: 749 x 788 km, 74.0° (Epoch: 23 June)

Event Time Altitude Azimuth Distance (km) Brightness Sun altitude
Exits shadow 22:50:41 40° 197° (SSW) 1,107 4.4 -20.1°
Maximum altitude 22:52:37 85° 112° (ESE) 761 3.9 -20.1°
Drops below altitude 10° 22:57:47 10° 25° (NNE) 2,280 7.3 -20.2°
Sets 23:00:09 0° 25° (NNE) 3,208 8.2 -20.3°
